EW7939 Weather Reports


Display with metric or nautical units.
time (UTC)temp
F
wind
direction
speed
MPH
gust
MPH
rain 1hr
in
rain 24hr
in
rain mn
in
humidity
%
barometer
mb
20260903103016 76 242 0.0 1.0 0.00 0.00 0.00 77 1010.0
20260903101519 76 242 0.0 1.0 0.00 0.00 0.00 77 1010.0
20260903100015 77 242 0.0 2.0 0.00 0.00 0.00 77 1009.9
20260903094511 77 242 0.0 1.0 0.00 0.00 0.00 77 1009.9
20260903093014 77 242 0.0 3.0 0.00 0.00 0.00 77 1009.9
20260903091512 78 242 0.0 1.0 0.00 0.00 0.00 77 1009.8
20260903090007 78 242 0.0 2.0 0.00 0.00 0.00 77 1009.9
20260903084506 78 242 0.0 2.0 0.00 0.00 0.00 77 1009.9
20260903083005 78 242 0.0 1.0 0.00 0.00 0.00 77 1009.8
20260903081508 79 242 0.0 2.0 0.00 0.00 0.00 77 1009.7
20260903080006 79 242 0.0 2.0 0.00 0.00 0.00 77 1009.8
20260903074504 79 242 0.0 3.0 0.00 0.00 0.00 78 1009.8
20260903073002 79 243 0.0 3.0 0.00 0.00 0.00 78 1009.8
20260903071607 79 244 0.0 0.0 0.00 0.00 0.00 78 1009.9
20260903064558 79 244 0.0 2.0 0.00 0.00 0.00 77 1010.0
20260903063119 79 244 0.0 0.0 0.00 0.00 0.00 77 1010.0
20260903061555 79 244 0.0 2.0 0.00 0.00 0.00 76 1009.9
20260903060059 80 244 0.0 2.0 0.00 0.00 0.00 76 1009.9
20260903054551 80 244 0.0 0.0 0.00 0.00 0.00 75 1009.9
20260903053049 80 244 0.0 0.0 0.00 0.00 0.00 74 1009.8
20260903051548 81 244 0.0 1.0 0.00 0.00 0.00 74 1009.9
20260903050106 81 244 0.0 2.0 0.00 0.00 0.00 74 1009.8
20260903044545 81 244 0.0 2.0 0.00 0.00 0.00 74 1009.8
20260903043044 81 244 0.0 2.0 0.00 0.00 0.00 73 1009.8
20260903041544 81 244 0.0 2.0 0.00 0.00 0.00 73 1009.8
20260903040049 82 244 0.0 2.0 0.00 0.00 0.00 72 1009.8
20260903034542 82 244 0.0 0.0 0.00 0.00 0.00 71 1009.9
20260903033042 83 244 0.0 0.0 0.00 0.00 0.00 69 1010.0
20260903031541 83 244 0.0 0.0 0.00 0.00 0.00 69 1010.0
20260903030041 84 244 0.0 0.0 0.00 0.00 0.00 69 1010.0
20260903024541 84 244 0.0 0.0 0.00 0.00 0.00 67 1009.9
20260903023043 85 244 0.0 0.0 0.00 0.00 0.00 66 1009.8
20260903021540 85 244 0.0 2.0 0.00 0.00 0.00 65 1009.7
20260903020044 86 244 0.0 2.0 0.00 0.00 0.00 63 1009.6
20260903014545 87 244 0.0 0.0 0.00 0.00 0.00 62 1009.4
20260903013038 88 244 0.0 0.0 0.00 0.00 0.00 60 1009.3
20260903011554 90 244 0.0 0.0 0.00 0.00 0.00 58 1009.1
20260903010035 91 244 0.0 0.0 0.00 0.00 0.00 55 1009.1
20260903004536 93 244 0.0 0.0 0.00 0.00 0.00 53 1009.1
20260903003033 95 244 0.0 0.0 0.00 0.00 0.00 51 1009.1
20260903001535 96 244 0.0 0.0 0.00 0.00 0.00 51 1009.2
20260903000033 97 244 0.0 0.0 0.00 0.00 0.00 49 1009.2
20260902234538 98 244 0.0 0.0 0.00 0.00 0.00 48 1009.1
20260902233032 99 244 0.0 2.0 0.00 0.00 0.00 48 1009.1
20260902231543 99 244 0.0 2.0 0.00 0.00 0.00 47 1009.2
20260902230031 100 244 1.0 4.0 0.00 0.00 0.00 45 1009.2
20260902224523 100 245 0.0 4.0 0.00 0.00 0.00 46 1009.2
20260902223021 100 247 1.0 5.0 0.00 0.00 0.00 44 1009.3
20260902221520 100 246 2.0 9.0 0.00 0.00 0.00 42 1009.4
20260902220014 101 238 3.0 9.0 0.00 0.00 0.00 42 1009.6
20260902214511 0 0.0 0.0 0.00 0.00 0.00 1009.7
20260902213007 0 0.0 0.0 0.00 0.00 0.00 1009.7
20260902211502 0 0.0 0.0 0.00 0.00 0.00 1009.8
20260902210058 0 0.0 0.0 0.00 0.00 0.00 1009.9
20260902204554 0 0.0 0.0 0.00 0.00 0.00 1010.1
20260902203049 0 0.0 0.0 0.00 0.00 0.00 1010.1
20260902201547 100 250 3.0 12.0 0.00 0.00 0.00 44 1010.2
20260902200043 99 275 4.0 12.0 0.00 0.00 0.00 44 1010.3
20260902194543 99 243 5.0 14.0 0.00 0.00 0.00 44 1010.5
20260902193041 99 244 4.0 11.0 0.00 0.00 0.00 44 1010.7
20260902191540 99 314 4.0 11.0 0.00 0.00 0.00 44 1010.8
20260902190036 99 277 4.0 8.0 0.00 0.00 0.00 47 1011.0
20260902184531 98 277 3.0 9.0 0.00 0.00 0.00 47 1011.1
20260902183028 98 248 3.0 9.0 0.00 0.00 0.00 47 1011.3
20260902181523 97 232 3.0 10.0 0.00 0.00 0.00 49 1011.4
20260902180019 96 295 3.0 11.0 0.00 0.00 0.00 51 1011.6
20260902174517 96 291 6.0 12.0 0.00 0.00 0.00 50 1011.9
20260902173011 95 238 5.0 11.0 0.00 0.00 0.00 51 1012.1
20260902171507 95 236 4.0 13.0 0.00 0.00 0.00 52 1012.2
20260902170003 94 252 5.0 11.0 0.00 0.00 0.00 53 1012.4
20260902164600 93 213 5.0 12.0 0.00 0.00 0.00 53 1012.3
20260902163104 93 224 6.0 12.0 0.00 0.00 0.00 55 1012.5
20260902161556 92 273 4.0 12.0 0.00 0.00 0.00 57 1012.5
20260902160056 91 281 4.0 11.0 0.00 0.00 0.00 60 1012.6
20260902154545 89 240 4.0 14.0 0.00 0.00 0.00 61 1012.5
20260902153043 88 290 6.0 13.0 0.00 0.00 0.00 62 1012.4
20260902151542 87 250 5.0 13.0 0.00 0.00 0.00 64 1012.3
20260902150035 86 289 4.0 14.0 0.00 0.00 0.00 66 1012.3
20260902144535 84 254 4.0 11.0 0.00 0.00 0.00 69 1012.4
20260902143028 82 225 3.0 11.0 0.00 0.00 0.00 73 1012.3
20260902141526 80 175 2.0 10.0 0.00 0.00 0.00 78 1012.4
20260902140022 78 222 2.0 6.0 0.00 0.00 0.00 81 1012.4
20260902134533 77 205 1.0 4.0 0.00 0.00 0.00 82 1012.5
20260902133023 75 201 1.0 3.0 0.00 0.00 0.00 83 1012.6
20260902131519 75 198 0.0 4.0 0.00 0.00 0.00 82 1012.6
20260902130016 74 192 0.0 2.0 0.00 0.00 0.00 81 1012.5
20260902124515 74 192 0.0 0.0 0.00 0.00 0.00 80 1012.4
20260902123014 74 192 0.0 0.0 0.00 0.00 0.00 80 1012.4
20260902121511 74 192 0.0 0.0 0.00 0.00 0.00 80 1012.3
20260902120009 74 192 0.0 0.0 0.00 0.00 0.00 79 1012.3
20260902114506 74 192 0.0 0.0 0.00 0.00 0.00 79 1012.1
20260902113003 75 192 0.0 0.0 0.00 0.00 0.00 78 1012.0
20260902111604 75 192 0.0 0.0 0.00 0.00 0.00 78 1012.0
20260902110057 75 192 0.0 0.0 0.00 0.00 0.00 77 1012.0
20260902104557 75 192 0.0 0.0 0.00 0.00 0.00 77 1011.9
20260902103053 76 192 0.0 0.0 0.00 0.00 0.00 77 1011.9